This demonstration page uses our WeatherBlox Daily Observations layout. Learn more.

Left ArrowRight Arrow

34.74481, -87.66753

Hourly Observations for October 12, 2019

Temp ( °F °C ) Dew Point ( °F °C ) Humidity (%) Winds ( mph kmh ) Pressure ( in mb ) Visibility ( mi km ) Precip ( " mm )
12:36 am 00:36 Cloudy with Light Rain 53 11.7 49 9.4 86 86 NNW 12 19 30.14 1021 10 16 0.01 0.25
12:44 am 00:44 Cloudy 53 11.7 49 9.4 86 86 N 9 15 30.14 1021 10 16 0.01 0.25
12:53 am 00:53 Cloudy 53 11.7 50 10 89 89 NNW 7 11 30.13 1020 10 16 0.01 0.25
1:09 am 01:09 Cloudy 52 11.1 48 8.9 86 86 NW 9 15 30.16 1021 10 16 0.00 0.00
1:20 am 01:20 Cloudy 52 11.1 48 8.9 86 86 NNW 12 19 30.17 1022 10 16 0.00 0.00
1:53 am 01:53 Cloudy 51 10.6 47 8.3 86 86 N 8 13 30.14 1021 10 16 0.00 0.00
2:01 am 02:01 Cloudy 52 11.1 47 8.3 83 83 undefined N/A 30.18 1022 10 16 0.00 0.00
2:39 am 02:39 Cloudy 51 10.6 46 7.8 83 83 N 10 17 30.16 1021 10 16 0.00 0.00
2:53 am 02:53 Cloudy 51 10.6 46 7.8 83 83 N 8 13 30.14 1021 10 16 0.00 0.00
3:53 am 03:53 Cloudy 51 10.6 46 7.8 83 83 N 8 13 30.14 1021 10 16 0.00 0.00
4:39 am 04:39 Cloudy 51 10.6 46 7.8 83 83 NNE 10 17 30.17 1022 10 16 0.00 0.00
4:46 am 04:46 Cloudy 51 10.6 46 7.8 83 83 N 5 7 30.18 1022 10 16 0.00 0.00
4:53 am 04:53 Cloudy 51 10.6 46 7.8 83 83 N 6 9 30.15 1021 10 16 0.00 0.00
5:27 am 05:27 Cloudy 50 10 43 6.1 77 77 NNE 9 15 30.18 1022 10 16 0.00 0.00
5:53 am 05:53 Cloudy 49 9.4 41 5 74 74 N 8 13 30.17 1022 10 16 0.00 0.00
6:07 am 06:07 Cloudy 49 9.4 40 4.4 71 71 N 8 13 30.20 1023 10 16 0.00 0.00
6:53 am 06:53 Cloudy 48 8.9 41 5 77 77 N 5 7 30.19 1022 10 16 0.00 0.00
7:11 am 07:11 Mostly Cloudy 48 8.9 40 4.4 74 74 N 7 11 30.21 1023 10 16 0.00 0.00
7:50 am 07:50 Mostly Cloudy 48 9 39 4 71 71 N 8 13 30.21 1023 10 16 0.00 0.00
7:53 am 07:53 Mostly Cloudy 48 8.9 40 4.4 74 74 N 9 15 30.19 1022 10 16 0.00 0.00
8:40 am 08:40 Mostly Cloudy 50 10 42 5.6 74 74 VRB 7 11 30.21 1023 10 16 0.00 0.00
8:53 am 08:53 Mostly Cloudy 51 10.6 42 5.6 71 71 NE 7 11 30.19 1022 10 16 0.00 0.00
9:53 am 09:53 Cloudy 52 11.1 41 5 66 66 N 9 15 30.20 1023 10 16 0.00 0.00
10:34 am 10:34 Partly Cloudy 54 12.2 41 5 62 62 NE 10 17 30.21 1023 10 16 0.00 0.00
10:53 am 10:53 Sunny 55 12.8 41 5 59 59 NE 8 13 30.19 1023 10 16 0.00 0.00
11:53 am 11:53 Sunny 57 13.9 40 4.4 53 53 NE 9 15 30.19 1022 10 16 0.00 0.00
12:53 pm 12:53 Sunny 61 16.1 39 3.9 44 44 Calm 30.17 1022 10 16 0.00 0.00
1:53 pm 13:53 Sunny 62 16.7 39 3.9 43 43 VRB 3 6 30.14 1021 10 16 0.00 0.00
2:53 pm 14:53 Sunny 66 18.9 38 3.3 36 36 undefined N/A 30.12 1020 10 16 0.00 0.00
3:53 pm 15:53 Sunny 66 18.9 36 2.2 33 33 undefined N/A 30.10 1019 10 16 0.00 0.00
4:53 pm 16:53 Sunny 66 18.9 35 1.7 32 32 VRB 6 9 30.09 1019 10 16 0.00 0.00
5:53 pm 17:53 Sunny 63 17.2 36 2.2 37 37 NE 6 9 30.09 1019 10 16 0.00 0.00
6:53 pm 18:53 Clear 56 13.3 41 5 57 57 ENE 3 6 30.08 1019 10 16 0.00 0.00
7:53 pm 19:53 Clear 53 11.7 42 5.6 66 66 Calm 30.09 1019 10 16 0.00 0.00
8:53 pm 20:53 Clear 50 10 44 6.7 80 80 Calm 30.08 1019 10 16 0.00 0.00
9:53 pm 21:53 Clear 49 9.4 43 6.1 80 80 Calm 30.08 1019 10 16 0.00 0.00
10:53 pm 22:53 Clear 47 8.3 43 6.1 86 86 Calm 30.07 1018 10 16 0.00 0.00
11:53 pm 23:53 Clear 45 7.2 42 5.6 90 90 Calm 30.07 1018 10 16 0.00 0.00

Powered by AerisWeather